DW3560 Weather Reports


time (UTC)temp
C
wind
direction
speed
KPH
gust
KPH
rain 1hr
cm
rain 24hr
cm
rain mn
cm
humidity
%
barometer
mb
20260507215503 21 307 1.6 6.4 0.00 0.00 0.00 64 1017.9
20260507215003 21 335 1.6 8.0 0.00 0.00 0.00 63 1017.9
20260507214503 21 9 1.6 8.0 0.00 0.00 0.00 65 1017.9
20260507214024 21 326 3.2 8.0 0.00 0.00 0.00 65 1017.9
20260507213503 21 310 3.2 9.7 0.00 0.00 0.00 63 1017.9
20260507213003 21 326 1.6 8.0 0.00 0.00 0.00 64 1017.9
20260507212503 21 316 1.6 8.0 0.00 0.00 0.00 65 1017.9
20260507212003 21 330 1.6 6.4 0.00 0.00 0.00 64 1017.9
20260507211524 21 344 1.6 6.4 0.00 0.00 0.00 64 1018.4
20260507211003 20 341 1.6 6.4 0.00 0.00 0.00 65 1018.4
20260507210503 20 335 1.6 8.0 0.00 0.00 0.00 67 1018.4
20260507210003 20 319 1.6 9.7 0.00 0.00 0.00 67 1018.4
20260507205503 20 276 1.6 9.7 0.00 0.00 0.00 67 1018.4
20260507205003 20 268 3.2 9.7 0.00 0.00 0.00 66 1018.4
20260507204503 20 251 1.6 8.0 0.00 0.00 0.00 67 1018.4
20260507204003 20 267 1.6 8.0 0.00 0.00 0.00 67 1018.4
20260507203503 19 290 1.6 4.8 0.00 0.00 0.00 68 1018.4
20260507203003 19 224 3.2 6.4 0.00 0.00 0.00 67 1018.4
20260507202503 19 206 3.2 6.4 0.00 0.00 0.00 67 1018.4
20260507202003 18 233 1.6 6.4 0.00 0.00 0.00 68 1018.4
20260507201503 18 285 1.6 4.8 0.00 0.00 0.00 69 1018.8
20260507201003 18 240 1.6 8.0 0.00 0.00 0.00 69 1018.8
20260507200503 18 242 1.6 8.0 0.00 0.00 0.00 69 1018.8
20260507200024 18 325 1.6 6.4 0.00 0.00 0.00 70 1018.8
20260507195524 18 340 1.6 9.7 0.00 0.00 0.00 71 1018.8
20260507195003 18 325 1.6 9.7 0.00 0.00 0.00 72 1018.8
20260507194503 18 325 1.6 8.0 0.00 0.00 0.00 73 1018.8
20260507194003 17 327 1.6 6.4 0.00 0.00 0.00 73 1018.8
20260507193503 17 285 1.6 6.4 0.00 0.00 0.00 74 1018.8
20260507193003 17 300 1.6 8.0 0.00 0.00 0.00 74 1018.8
20260507192503 17 338 3.2 8.0 0.00 0.00 0.00 75 1018.8
20260507192003 17 343 1.6 6.4 0.00 0.00 0.00 77 1018.8
20260507191503 16 334 1.6 6.4 0.00 0.00 0.00 78 1019.3
20260507191003 16 326 1.6 6.4 0.00 0.00 0.00 77 1019.3
20260507190503 16 280 1.6 6.4 0.00 0.00 0.00 79 1019.3
20260507190004 16 277 1.6 4.8 0.00 0.00 0.00 78 1019.3
20260507185503 16 272 1.6 6.4 0.00 0.00 0.00 79 1019.3
20260507185024 15 231 3.2 12.9 0.00 0.00 0.00 80 1019.3
20260507184524 15 250 3.2 12.9 0.00 0.00 0.00 79 1019.3
20260507184003 16 341 3.2 9.7 0.00 0.00 0.00 81 1019.3
20260507183503 15 349 3.2 9.7 0.00 0.00 0.00 82 1019.3
20260507183003 15 4 1.6 8.0 0.00 0.00 0.00 84 1019.3
20260507182503 15 348 1.6 8.0 0.00 0.00 0.00 85 1019.3
20260507182024 15 341 1.6 12.9 0.00 0.00 0.00 87 1019.3
20260507181503 15 345 1.6 12.9 0.00 0.00 0.00 88 1018.5
20260507181003 15 354 1.6 6.4 0.00 0.00 0.00 89 1018.5
20260507180503 14 296 1.6 6.4 0.00 0.00 0.00 91 1018.5
20260507180024 13 275 1.6 6.4 0.00 0.00 0.00 91 1018.5
20260507175503 13 326 1.6 6.4 0.00 0.00 0.00 92 1018.5
20260507175003 13 342 0.0 8.0 0.00 0.00 0.00 93 1018.5
20260507174503 13 333 0.0 8.0 0.00 0.00 0.00 93 1018.5
20260507174003 13 337 1.6 6.4 0.00 0.00 0.00 94 1018.5
20260507173524 13 337 1.6 6.4 0.00 0.00 0.00 94 1018.5
20260507173003 12 338 1.6 8.0 0.00 0.00 0.00 94 1018.5
20260507172503 12 336 3.2 8.0 0.00 0.00 0.00 95 1018.5
20260507172003 12 308 1.6 6.4 0.00 0.00 0.00 95 1018.5
20260507171503 12 263 0.0 3.2 0.00 0.00 0.00 95 1018.5
20260507171003 12 308 1.6 6.4 0.00 0.00 0.00 95 1018.5
20260507170503 12 330 1.6 6.4 0.00 0.00 0.00 95 1018.5
20260507170003 12 343 1.6 6.4 0.00 0.00 0.00 95 1018.5
20260507165503 11 342 1.6 6.4 0.00 0.00 0.00 95 1018.5
20260507165003 11 337 1.6 6.4 0.00 0.00 0.00 95 1018.5
20260507164503 11 332 1.6 6.4 0.00 0.00 0.00 95 1018.5
20260507164003 11 334 1.6 6.4 0.00 0.00 0.00 95 1018.5
20260507163503 11 344 1.6 4.8 0.00 0.00 0.00 95 1018.5
20260507163003 11 343 0.0 3.2 0.00 0.00 0.00 95 1018.5
20260507162503 11 346 0.0 4.8 0.00 0.00 0.00 95 1018.5
20260507162024 11 344 1.6 6.4 0.00 0.00 0.00 95 1018.5
20260507161503 11 343 1.6 6.4 0.00 0.00 0.00 95 1018.5
20260507161003 11 340 1.6 6.4 0.00 0.00 0.00 95 1018.5
20260507160524 11 339 1.6 6.4 0.00 0.00 0.00 95 1018.5
20260507160003 11 336 1.6 4.8 0.00 0.00 0.00 95 1018.5
20260507155503 11 337 1.6 4.8 0.00 0.00 0.00 95 1018.5
20260507155003 11 340 1.6 4.8 0.00 0.00 0.00 95 1018.5
20260507154503 11 346 1.6 8.0 0.00 0.00 0.00 95 1018.5
20260507154003 11 347 1.6 8.0 0.00 0.00 0.00 95 1018.5
20260507153524 11 348 1.6 4.8 0.00 0.00 0.00 95 1018.5
20260507153003 11 346 0.0 3.2 0.00 0.00 0.00 95 1018.5
20260507152503 11 346 1.6 4.8 0.00 0.00 0.00 95 1018.5
20260507152003 11 346 1.6 6.4 0.00 0.00 0.00 95 1018.5
20260507151503 11 345 1.6 6.4 0.00 0.00 0.00 95 1018.5
20260507151024 11 344 0.0 3.2 0.00 0.00 0.00 95 1018.5
20260507150503 10 344 0.0 3.2 0.00 0.00 0.00 95 1018.5
20260507150003 10 344 1.6 6.4 0.00 0.00 0.00 95 1018.5
20260507145524 10 344 1.6 6.4 0.00 0.00 0.00 95 1018.5
20260507145003 10 344 1.6 6.4 0.00 0.00 0.00 95 1018.5
20260507144503 10 344 0.0 3.2 0.00 0.00 0.00 95 1018.5
20260507144003 10 344 0.0 3.2 0.00 0.00 0.00 95 1018.5
20260507143503 10 344 0.0 3.2 0.00 0.00 0.00 95 1018.5
20260507143025 10 344 0.0 3.2 0.00 0.00 0.00 95 1018.5
20260507142503 10 344 0.0 4.8 0.00 0.00 0.00 95 1018.5
20260507142003 10 346 1.6 8.0 0.00 0.00 0.00 95 1018.5
20260507141503 10 346 1.6 8.0 0.00 0.00 0.00 95 1018.5
20260507141003 10 350 0.0 1.6 0.00 0.00 0.00 95 1018.5
20260507140524 10 350 0.0 1.6 0.00 0.00 0.00 95 1018.5
20260507140003 10 351 0.0 1.6 0.00 0.00 0.00 95 1018.5
20260507135503 10 351 0.0 4.8 0.00 0.00 0.00 95 1018.5
20260507135004 10 351 0.0 4.8 0.00 0.00 0.00 95 1018.5
20260507134524 10 350 0.0 3.2 0.00 0.00 0.00 95 1018.5
20260507134003 10 353 0.0 6.4 0.00 0.00 0.00 95 1018.5
20260507133503 10 346 0.0 6.4 0.00 0.00 0.00 95 1018.5
20260507133003 10 318 0.0 4.8 0.00 0.00 0.00 95 1018.5
20260507132524 10 312 0.0 3.2 0.00 0.00 0.00 95 1018.5
20260507132003 10 315 0.0 1.6 0.00 0.00 0.00 95 1018.5
20260507131503 10 315 0.0 1.6 0.00 0.00 0.00 95 1018.5
20260507131003 10 315 0.0 1.6 0.00 0.00 0.00 95 1018.5
20260507130503 10 317 0.0 3.2 0.00 0.00 0.00 95 1018.5
20260507130003 10 319 0.0 3.2 0.00 0.00 0.00 95 1018.5
20260507125524 10 321 0.0 3.2 0.00 0.00 0.00 94 1018.5
20260507125003 10 320 0.0 4.8 0.00 0.00 0.00 94 1018.5
20260507124503 10 319 0.0 4.8 0.00 0.00 0.00 94 1018.5
20260507124003 11 0 0.0 0.0 0.00 0.00 0.00 94 1018.5
20260507123503 10 0 0.0 0.0 0.00 0.00 0.00 94 1018.5
20260507123003 10 0 0.0 0.0 0.00 0.00 0.00 94 1018.5
20260507122503 10 0 0.0 0.0 0.00 0.00 0.00 94 1018.5
20260507122024 10 0 0.0 0.0 0.00 0.00 0.00 94 1018.5
20260507121503 11 0 0.0 0.0 0.00 0.00 0.00 94 1018.5
20260507121003 11 0 0.0 0.0 0.00 0.00 0.00 94 1018.5
20260507120503 10 0 0.0 0.0 0.00 0.00 0.00 94 1018.5
20260507120002 10 277 0.0 3.2 0.00 0.00 0.00 94 1018.5
20260507115501 10 294 0.0 3.2 0.00 0.00 0.00 94 1018.5
20260507115002 10 305 0.0 3.2 0.00 0.00 0.00 94 1018.5
20260507114502 10 307 0.0 3.2 0.00 0.00 0.00 94 1018.5
20260507114022 11 303 0.0 3.2 0.00 0.00 0.00 94 1018.5
20260507113523 11 296 0.0 3.2 0.00 0.00 0.00 94 1018.5
20260507113002 11 240 0.0 3.2 0.00 0.00 0.00 94 1018.5
20260507112501 11 240 0.0 3.2 0.00 0.00 0.00 94 1018.5
20260507112002 11 248 0.0 1.6 0.00 0.00 0.00 94 1018.5
20260507111502 11 0 0.0 0.0 0.00 0.00 0.00 94 1018.5
20260507111002 11 0 0.0 0.0 0.00 0.00 0.00 94 1018.5
20260507110502 11 248 0.0 1.6 0.00 0.00 0.00 94 1018.5
20260507110023 11 248 0.0 1.6 0.00 0.00 0.00 94 1019.2
20260507105501 11 264 0.0 3.2 0.00 0.00 0.00 94 1019.2
20260507105001 11 270 0.0 3.2 0.00 0.00 0.00 94 1019.2
20260507104501 11 223 0.0 3.2 0.00 0.00 0.00 94 1019.2
20260507104001 11 223 0.0 3.2 0.00 0.00 0.00 94 1019.2
20260507103501 11 223 0.0 3.2 0.00 0.00 0.00 94 1019.2
20260507103022 11 223 0.0 4.8 0.00 0.00 0.00 94 1019.2
20260507102502 11 223 0.0 4.8 0.00 0.00 0.00 94 1019.2
20260507102001 11 222 0.0 1.6 0.00 0.00 0.00 94 1019.2
20260507101501 11 222 0.0 3.2 0.00 0.00 0.00 94 1019.2
20260507101002 11 222 0.0 3.2 0.00 0.00 0.00 94 1019.2
20260507100501 11 216 0.0 3.2 0.00 0.00 0.00 94 1019.2
20260507100002 11 216 0.0 3.2 0.00 0.00 0.00 93 1019.2
20260507095501 11 216 0.0 3.2 0.00 0.00 0.00 94 1019.2
20260507095002 11 216 0.0 3.2 0.00 0.00 0.00 93 1019.2
20260507094501 11 216 0.0 4.8 0.00 0.00 0.00 94 1019.2
20260507094022 11 216 0.0 4.8 0.00 0.00 0.00 94 1019.2
20260507093501 11 216 0.0 3.2 0.00 0.00 0.00 94 1019.2
20260507093002 11 216 0.0 3.2 0.00 0.00 0.00 93 1019.2
20260507092502 11 0 0.0 0.0 0.00 0.00 0.00 93 1019.2
20260507092022 11 216 0.0 3.2 0.00 0.00 0.00 93 1019.2
20260507091502 11 216 0.0 3.2 0.00 0.00 0.00 93 1019.2
20260507091002 11 231 0.0 3.2 0.00 0.00 0.00 93 1019.2
20260507090502 11 240 0.0 3.2 0.00 0.00 0.00 93 1019.2
20260507090002 11 245 0.0 3.2 0.00 0.00 0.00 93 1019.2
20260507085523 11 236 0.0 3.2 0.00 0.00 0.00 93 1019.2
20260507085002 11 236 0.0 1.6 0.00 0.00 0.00 93 1019.2
20260507084502 11 237 0.0 1.6 0.00 0.00 0.00 93 1019.2
20260507084001 11 237 0.0 4.8 0.00 0.00 0.00 93 1019.2
20260507083501 11 238 0.0 6.4 0.00 0.00 0.00 93 1019.2
20260507083023 11 238 0.0 6.4 0.00 0.00 0.00 93 1019.2
20260507082501 11 236 0.0 4.8 0.00 0.00 0.00 93 1019.2
20260507082002 11 237 0.0 4.8 0.00 0.00 0.00 93 1019.2
20260507081502 11 241 0.0 3.2 0.00 0.00 0.00 93 1019.2
20260507081023 11 244 0.0 3.2 0.00 0.00 0.00 93 1019.2
20260507080502 11 244 0.0 3.2 0.00 0.00 0.00 93 1019.2
20260507080002 11 242 1.6 4.8 0.00 0.00 0.00 93 1019.2
20260507075501 11 241 0.0 4.8 0.00 0.00 0.00 93 1019.2
20260507075001 11 230 0.0 3.2 0.00 0.00 0.00 93 1019.2
20260507074502 11 232 0.0 4.8 0.00 0.00 0.00 92 1019.2
20260507074002 11 241 0.0 4.8 0.00 0.00 0.00 92 1019.2
20260507073502 11 329 0.0 1.6 0.00 0.00 0.00 92 1019.2
20260507073002 11 329 0.0 1.6 0.00 0.00 0.00 92 1019.2
20260507072502 11 330 0.0 3.2 0.00 0.00 0.00 92 1019.2
20260507072002 11 330 0.0 3.2 0.00 0.00 0.00 92 1019.2
20260507071523 11 331 0.0 1.6 0.00 0.00 0.00 92 1019.2
20260507071002 11 331 0.0 1.6 0.00 0.00 0.00 92 1019.2
20260507070503 11 331 0.0 3.2 0.00 0.00 0.00 92 1019.2
20260507070008 11 328 0.0 4.8 0.00 0.00 0.00 92 1019.2
20260507065502 11 325 0.0 4.8 0.00 0.00 0.00 92 1019.2
20260507065023 12 311 0.0 4.8 0.00 0.00 0.00 92 1019.2
20260507064501 12 302 0.0 4.8 0.00 0.00 0.00 92 1019.2
20260507064002 12 285 0.0 3.2 0.00 0.00 0.00 92 1019.2
20260507063502 12 328 0.0 4.8 0.00 0.00 0.00 92 1019.2
20260507063002 12 332 1.6 8.0 0.00 0.00 0.00 91 1019.2
20260507062502 12 325 0.0 8.0 0.00 0.00 0.00 91 1019.2
20260507062002 12 295 0.0 4.8 0.00 0.00 0.00 91 1019.2
20260507061502 12 267 0.0 1.6 0.00 0.00 0.00 91 1019.2
20260507061002 12 259 0.0 1.6 0.00 0.00 0.00 91 1019.2
20260507060502 12 259 0.0 1.6 0.00 0.00 0.00 91 1019.2
20260507060002 12 259 0.0 1.6 0.00 0.00 0.00 91 1019.2
20260507055502 12 259 0.0 1.6 0.00 0.00 0.00 91 1019.2
20260507055002 12 259 0.0 1.6 0.00 0.00 0.00 91 1019.2
20260507054502 12 261 0.0 1.6 0.00 0.00 0.00 91 1019.2
20260507054023 12 247 0.0 4.8 0.00 0.00 0.00 91 1019.2
20260507053502 12 237 0.0 4.8 0.00 0.00 0.00 91 1019.2
20260507053001 12 221 0.0 4.8 0.00 0.00 0.00 90 1019.2
20260507052502 12 221 0.0 4.8 0.00 0.00 0.00 90 1019.2
20260507052002 12 231 1.6 8.0 0.00 0.00 0.00 90 1019.2
20260507051501 12 227 1.6 8.0 0.00 0.00 0.00 90 1018.5
20260507051002 12 217 1.6 6.4 0.00 0.00 0.00 90 1018.5
20260507050502 12 209 1.6 4.8 0.00 0.00 0.00 90 1018.5
20260507050023 12 197 1.6 6.4 0.00 0.00 0.00 89 1018.5
20260507045502 12 199 0.0 6.4 0.00 0.00 0.00 89 1018.5
20260507045002 12 197 0.0 4.8 0.00 0.00 0.00 89 1018.5
20260507044523 12 197 1.6 4.8 0.00 0.00 0.00 89 1018.5
20260507044002 12 198 1.6 6.4 0.00 0.00 0.00 89 1018.5
20260507043502 12 199 1.6 6.4 0.00 0.00 0.00 88 1018.5
20260507043002 12 202 1.6 4.8 0.00 0.00 0.00 88 1018.5
20260507042502 12 204 0.0 4.8 0.00 0.00 0.00 88 1018.5
20260507042002 12 225 1.6 6.4 0.00 0.00 0.00 88 1018.5
20260507041523 12 250 1.6 6.4 0.00 0.00 0.00 87 1018.5
20260507041002 12 299 0.0 3.2 0.00 0.00 0.00 87 1018.5
20260507040502 12 303 0.0 3.2 0.00 0.00 0.00 87 1018.5
20260507040002 13 304 0.0 3.2 0.00 0.00 0.00 87 1018.5
20260507035523 13 304 0.0 1.6 0.00 0.00 0.00 86 1018.5
20260507035002 13 311 0.0 1.6 0.00 0.00 0.00 86 1018.5
20260507034502 13 312 0.0 3.2 0.00 0.00 0.00 86 1018.5
20260507034002 13 316 0.0 3.2 0.00 0.00 0.00 86 1018.5
20260507033502 13 338 0.0 1.6 0.00 0.00 0.00 86 1018.5
20260507033002 13 339 0.0 3.2 0.00 0.00 0.00 85 1018.5
20260507032502 13 340 0.0 3.2 0.00 0.00 0.00 85 1018.5
20260507032002 13 341 0.0 3.2 0.00 0.00 0.00 85 1018.5
20260507031502 13 334 0.0 3.2 0.00 0.00 0.00 85 1020.1
20260507031002 13 329 0.0 3.2 0.00 0.00 0.00 84 1020.1
20260507030502 13 324 0.0 3.2 0.00 0.00 0.00 84 1020.1
20260507030003 14 327 0.0 4.8 0.00 0.00 0.00 84 1020.1
20260507025523 14 328 0.0 4.8 0.00 0.00 0.00 83 1020.1
20260507025002 14 333 0.0 3.2 0.00 0.00 0.00 83 1020.1
20260507024502 14 340 0.0 4.8 0.00 0.00 0.00 83 1020.1
20260507024002 14 349 1.6 4.8 0.00 0.00 0.00 82 1020.1
20260507023502 15 352 1.6 6.4 0.00 0.00 0.00 82 1020.1
20260507023002 15 340 1.6 8.0 0.00 0.00 0.00 82 1020.1
20260507022502 15 316 0.0 8.0 0.00 0.00 0.00 82 1020.1
20260507022002 15 325 0.0 4.8 0.00 0.00 0.00 81 1020.1
20260507021502 15 296 0.0 3.2 0.00 0.00 0.00 81 1020.1
20260507021002 15 245 0.0 3.2 0.00 0.00 0.00 81 1020.1
20260507020502 15 267 0.0 8.0 0.00 0.00 0.00 80 1020.1
20260507020002 15 326 1.6 9.7 0.00 0.00 0.00 80 1020.1
20260507015523 16 357 1.6 9.7 0.00 0.00 0.00 79 1020.1
20260507015002 16 176 0.0 4.8 0.00 0.00 0.00 78 1020.1
20260507014502 16 336 0.0 3.2 0.00 0.00 0.00 78 1020.1
20260507014002 16 311 1.6 4.8 0.00 0.00 0.00 78 1020.1
20260507013502 17 274 1.6 4.8 0.00 0.00 0.00 77 1020.1
20260507013002 17 267 1.6 8.0 0.00 0.00 0.00 77 1020.1
20260507012502 17 260 1.6 8.0 0.00 0.00 0.00 75 1020.1
20260507012002 17 203 1.6 4.8 0.00 0.00 0.00 75 1020.1
20260507011502 18 358 1.6 8.0 0.00 0.00 0.00 74 1020.1
20260507011023 18 348 1.6 9.7 0.00 0.00 0.00 73 1020.1
20260507010502 18 349 1.6 9.7 0.00 0.00 0.00 72 1020.1
20260507010002 19 2 1.6 12.9 0.00 0.00 0.00 71 1020.1
20260507005502 19 352 1.6 12.9 0.00 0.00 0.00 71 1020.1
20260507005002 19 345 3.2 12.9 0.00 0.00 0.00 71 1020.1
20260507004502 20 342 3.2 8.0 0.00 0.00 0.00 71 1020.1
20260507004023 20 344 3.2 9.7 0.00 0.00 0.00 70 1020.1
20260507003502 20 346 3.2 9.7 0.00 0.00 0.00 70 1020.1
20260507003002 20 333 1.6 6.4 0.00 0.00 0.00 70 1020.1
20260507002502 20 331 1.6 12.9 0.00 0.00 0.00 70 1020.1
20260507002023 20 339 3.2 14.5 0.00 0.00 0.00 70 1020.1
20260507001502 20 341 3.2 14.5 0.00 0.00 0.00 70 1020.1
20260507001023 20 342 1.6 12.9 0.00 0.00 0.00 69 1020.1
20260507000502 20 345 3.2 8.0 0.00 0.00 0.00 69 1020.1
20260507000002 20 351 3.2 8.0 0.00 0.00 0.00 68 1020.1
20260506235502 20 345 3.2 16.1 0.00 0.00 0.00 68 1020.1
20260506235023 20 341 3.2 16.1 0.00 0.00 0.00 68 1020.1
20260506234502 21 351 3.2 16.1 0.00 0.00 0.00 68 1020.1
20260506234002 21 337 1.6 8.0 0.00 0.00 0.00 68 1020.1
20260506233523 21 324 1.6 8.0 0.00 0.00 0.00 68 1020.1
20260506233002 21 329 1.6 8.0 0.00 0.00 0.00 67 1020.1
20260506232502 21 337 1.6 12.9 0.00 0.00 0.00 67 1020.1
20260506232002 21 345 3.2 12.9 0.00 0.00 0.00 67 1020.1
20260506231502 21 345 3.2 14.5 0.00 0.00 0.00 67 1020.1
20260506231002 21 337 3.2 14.5 0.00 0.00 0.00 67 1020.1
20260506230502 21 342 3.2 14.5 0.00 0.00 0.00 67 1020.1
20260506230002 21 347 4.8 14.5 0.00 0.00 0.00 66 1020.1
20260506225502 22 339 3.2 12.9 0.00 0.00 0.00 66 1020.1
20260506225023 22 336 1.6 12.9 0.00 0.00 0.00 66 1020.1
20260506224502 22 340 3.2 14.5 0.00 0.00 0.00 67 1020.1
20260506224002 22 337 3.2 14.5 0.00 0.00 0.00 66 1020.1
20260506223502 22 332 3.2 9.7 0.00 0.00 0.00 66 1020.1
20260506223002 22 337 3.2 9.7 0.00 0.00 0.00 66 1020.1
20260506222502 22 342 4.8 12.9 0.00 0.00 0.00 66 1020.1
20260506222002 22 335 3.2 12.9 0.00 0.00 0.00 66 1020.1
20260506221502 22 230 1.6 9.7 0.00 0.00 0.00 66 1020.1
20260506221002 22 223 1.6 12.9 0.00 0.00 0.00 66 1020.1
20260506220502 22 251 1.6 19.3 0.00 0.00 0.00 66 1020.1
20260506220003 22 258 1.6 19.3 0.00 0.00 0.00 65 1020.1